Location: Newark
(39.6867°N, 100.6772°W)
Time: 20:56:03
(UTC+00:00)

Vanguard 1 Rocket - Pass Details

Date: 25 October 2019
Orbit: 651 x 4226 km, 34.3° (Epoch: 18 November)

Event Time Altitude Azimuth Distance (km) Brightness Sun altitude
Rises 18:49:39 0° 270° (W) 5,673 11.5 37.8°
Reaches altitude 10° 18:52:40 10° 268° (W) 5,031 11.4 37.8°
Maximum altitude 19:09:04 73° 188° (S) 3,674 11.5 37.2°
Drops below altitude 10° 19:35:04 10° 110° (ESE) 7,412 12.1 35.7°
Sets 19:40:45 0° 109° (ESE) 8,339 12.3 35.3°
